CamptonHillsWeather.com

Find the Weather for any City, State  
or Zipcode, or Country:

Campton Hills, IL Weather
Local Radar

Local Radar

Graphs, Details
Graphs and Gauges
Detailed Weather
Detailed Reports
Ajax Version (old)
Central Kane Co Summary
Davis Current Weather Graphs
Davis 24 Hour Weather History

CW3778 Data

Weather Underground
Maps
Temperature
Heat Index
Windchill
Humidity
Radar
Dew Point
Wind
Visibility
Visible Satellite
Satellite
Fronts
Snow Depth
Jet Stream
Flight Rules
Forecast Maps
Temperature Forecast
Maximum Temperature Forecast
Minimum Temperature Forecast
Dewpoint Forecast
Prevalent Weather
12Hr Probability of Precip.
Sky Cover
Health Maps
UV Forecast
Air Quality
Peak Air Quality Index
Weather Station
Davis Instruments Vantage Pro
Current Conditions [Select Refresh to Update]

Updated: 9:53pm on 7/29/16

(location)
Currently:
72.9F

Clear
Overcast

High: 81.0 F< 
(12:28am
Low: 65.8 F 
(5:20pm)
Wind: NNE 0 mph
Calm
Gust: 4 mph
Today's High Wind: 7 mph (2:55am)
Humidity: 84%
Pressure: 29.95 in  (Steady
Pressure Rate: -0.000 in/hr
Dew Point: 67.8F
Wind Chill: 72.9 F
Heat Index (feels like): 77.7 F
Comfort Level: Comfortable
Temperature Rate:  1.56F/hr
 
5 Day Forecast
 
Sat Sun Mon Tue Wed
Clear Clear Clear Clear Clear
T-storms Mostly Cloudy Mostly Cloudy Chance T-storms Chance T-storms
80 82 85 83 86
63 64 66 68 69

Records and Normals
 
Temperature Forecast Normal Record
High 80 84 98
(1999)
Low 63 62 49
(1997)
 
Links
 
 
Weather Advisories
Full Advisory Text...
Weather Map

Web Cam

Almanac
 
Sunrise:  
5:46am
Moonrise: 
1:49am

Moon Phase:
13%

Sunset: 
8:16pm
Moonset:  
4:28pm
 Star Chart...
Rainfall Totals
Hourly Rain 0.00 in
Daily Rain: 0.74 in
Monthly Rain: 3.36 in
Yearly Rain: 21.10 in
Normal Rain, month to date: 5.72 in
Normal Rain, year to date: 23.14 in
Link to Village of Campton Hills Map

Link to Counties of Illinois Map

Local Weather Exchange Network
Station ID City 
(Click for Map Location)
Neighborhood 
(Click for History)
Last Update (Date & Time) Temperature
 ()
Dew
Point ()
Humidity 
(%)
Wind 
(mph)
from the Wind Gust 
(mph) 
Pressure(in) Hourly
Rain(in)
KILSAINT20 Saint Charles Knoll Creek Drive 07/30 09:46:24 70.3 67.0 89 0 North 0 29.93 0.00
KILSAINT17 Saint Charles Glen Oak Lane 07/30 09:43:10 71.4 68.0 88 0 North 0 29.96 0.00
KILSAINT10 Saint Charles Saint Charles Burr Road 07/30 09:47:16 78.4 69.0 74 1 NE 0 29.67 0.00
KILSTCHA10 St. Charles Hunt Club 07/30 09:52:13 73.8 47.0 39 4 NNE 5 29.95 0.00
KILWAYNE4 Wayne Hampton Course 07/30 09:41:55 72.5 69.0 89 0 North 0 29.97 0.00
KILSAINT6 Saint Charles 3 Lakes 07/30 09:52:16 76.1 66.0 71 2 West 0 29.97 0.00
KILSOUTH10 South Elgin East Thornwood Drive 07/30 09:46:17 73.2 66.0 77 0 North 0 29.96 0.00
KILGENEV6 Geneva Dover Ridge 07/30 09:52:16 73.3 68.0 82 3 NE 3 29.92 0.00
KILELBUR18 Elburn Elodie Drive 07/30 09:51:30 70.2 68.0 91 0 North 0 29.96 0.00
KILGENEV10 Geneva Southampton Drive 07/30 09:35:29 73.0 73.0 100 2 NW 5 29.96 0.00
KILSTCHA8 St. Charles Ronzheimer Ave. & S. Tyler Rd. 07/30 09:52:17 72.6 67.0 83 2 NNE 9 29.92 0.00
KILGENEV18 Geneva downtown 07/30 09:52:01 77.5 68.0 72 4 NNE 5 29.92 0.00
KILGENEV3 Geneva Mill Creek (Blackberry Way) 07/30 09:52:06 75.7 69.0 80 2 NW 12 29.93 0.00
KILSTCHA1 St Charles CamptonHillsWeather.com Central Kane County 07/30 09:51:43 72.9 68.0 84 1 ENE 2 29.96 0.00
KILGENEV17 Geneva Geneva 07/30 09:45:35 76.3 76.0 100 0 North 0 29.95 0.00
KILGENEV8 Geneva Alexander Drive 07/30 09:42:10 68.2 51.0 53 0 North 0 29.65 0.00
KILSOUTH5 South Elgin Concord Park 07/30 09:51:31 73.2 69.0 87 5 NE 0 29.96 0.00
KILWAYNE7 Wayne Honey Hill 07/30 09:50:43 73.3 72.0 96 0 North 0 29.98 0.00
KILGENEV2 Geneva Mill Creek 07/30 09:39:18 74.9 -33.0 0 1 North 6 29.97 0.00
KILBATAV13 Batavia Blackhawk Dr, Batavia 07/30 09:52:18 74.7 66.0 75 3 NW 5 30.00 0.00
KILELBUR23 Elburn Elburn, IL 07/30 09:44:15 72.7 67.0 82 4 NNE 0 29.97 0.00
KILELBUR11 Elburn Cheval de Selle 07/30 09:48:58 75.0 67.0 76 2 NE 0 29.94 0.00
KILBATAV7 Batavia Charleston Street 07/30 09:43:32 73.8 70.0 87 0 North 0 29.97 0.00
KILBATAV16 Batavia Park Street 07/30 09:52:07 75.7 68.0 78 0 SW 0 29.91 0.00
KILELBUR13 Elburn Hicks Drive 07/30 09:50:44 77.9 59.0 51 0 North 0 29.96 0.00
KILBATAV1 Batavia Tri-Cities on the Fox River 07/30 09:50:44 74.4 68.0 79 0 NE 0 29.95 0.00
KILELGIN16 Elgin Providence Subdivision 07/30 09:46:29 75.0 65.0 72 2 SW 0 29.96 0.00
KILELBUR10 Elburn Prairie Valley North 07/30 09:52:14 73.0 65.0 76 3 NE 5 29.98 0.00
KILELBUR15 Elburn East North Street 07/30 09:45:47 76.3 68.0 75 0 North 0 29.96 0.00
KILBATAV10 Batavia Deerpath Road 07/30 09:42:01 73.0 70.0 90 0 North 0 29.96 0.00
KILELBUR9 Elburn Griffith Avenue 07/30 09:42:01 72.7 70.0 91 0 North 0 29.97 0.00
KILELBUR5 Elburn Prairie Highlands 07/30 09:50:15 73.2 68.0 84 0 North 0 29.94 0.00
KILMAPLE5 Maple Park 47 Cell Tower 07/30 09:51:39 76.5 66.0 70 2 NE 6 30.09 0.00
KDPA Chicago DuPage Official Station 07/30 09:25:00 74.0 65.0 73 9 NNE --- 29.98 ---
KARR Aurora Official Station 07/30 08:52:00 73.0 67.0 81 6 NE --- 29.97 ---
KDKB DeKalb Official Station 07/30 09:35:00 72.0 67.0 83 7 ENE --- 30.00 ---
KORD Chicago Official Station 07/30 09:34:00 72.0 65.0 78 9 ENE --- 29.98 ---
Full Advisory Text
No Warnings

Ambient Weather and Weather Underground
 Never base important decisions on this or any weather information obtained from the Internet
Updated Automatically by Ambient Weather's Virtual Weather Station  V13.01